[[{"header":{"parameterUnit":"m.s-1","parameterCategory":1,"la1":30.2992,"la2":30.254,"lo1":-89.0895,"lo2":-89.0443,"dy":0.0025,"dx":0.0025,"nx":19,"ny":19,"refTime":"2026-03-29T21:00:00:Z","depth":0,"parameterNumber":2,"parameterNumberName":"U-component_of_WINDS"},"data":[0,0,0,-4.5216,-4.5219,-4.5367,-4.5367,-4.5557,-4.5559,0,0,0,0,0,0,0,0,0,0,0,-4.5172,-4.5173,-4.5216,-4.5219,-4.5367,-4.5367,-4.5557,-4.5559,0,0,0,0,0,0,0,0,0,0,0,-4.5171,-4.5173,-4.5175,-4.522,-4.5367,-4.5368,-4.5556,-4.5445,0,0,0,0,0,0,0,0,0,0,-4.5301,-4.526,-4.5173,-4.5175,-4.5221,-4.5367,-4.5368,-4.5439,-4.5452,-4.549,0,-4.5524,0,-4.5544,-4.5571,-4.5572,0,0,0,-4.5219,-4.525,-4.529,-4.5175,-4.5222,-4.5366,-4.53,-4.5446,-4.546,-4.5506,-4.5527,-4.5534,-4.5548,-4.5573,-4.5573,-4.5795,-4.5796,0,0,-4.5211,-4.5199,-4.528,-4.5299,-4.5276,-4.5295,-4.5305,-4.5455,-4.5476,-4.5528,-4.5538,-4.5551,-4.5574,-4.5575,-4.5794,-4.5795,0,0,0,-4.5188,-4.5193,-4.5229,-4.5291,-4.5318,-4.53,-4.5311,-4.5469,-4.5482,-4.554,-4.5553,-4.5575,-4.5577,-4.5793,-4.5795,-4.5832,0,0,0,-4.5183,-4.5179,-4.5225,-4.5219,-4.5315,-4.5395,-4.5322,-4.5472,-4.5489,-4.5552,-4.5575,-4.5579,-4.5792,-4.5794,-4.5829,-4.5851,0,0,0,-4.5162,-4.5177,-4.5198,-4.5218,-4.5281,-4.5393,-4.5415,-4.5476,-4.5497,-4.5572,-4.558,-4.5791,-4.5794,-4.5826,-4.5846,-4.5905,0,0,0,-4.5137,-4.523,-4.5199,-4.5308,-4.528,-4.5416,-4.5414,-4.5516,-4.5585,-4.5576,-4.5792,-4.5794,-4.5825,-4.5843,-4.5901,-4.595,-4.597,0,0,-4.5247,-4.5243,-4.5308,-4.5284,-4.5422,-4.5394,-4.5539,-4.5614,-4.5633,-4.574,-4.5746,-4.583,-4.5846,-4.5904,-4.6088,-4.6104,0,0,0,-4.5339,-4.5385,-4.5424,-4.549,-4.555,-4.5603,-4.5658,-4.5686,-4.5778,-4.5685,-4.5868,-4.5878,-4.5913,-4.5937,-4.595,-4.598,-4.5806,-4.5805,-4.5805,-4.5475,-4.5494,-4.5603,-4.5641,-4.5705,-4.5761,-4.5814,-4.5862,-4.5863,-4.5906,-4.5937,-4.6046,-4.6074,-4.6084,-4.6115,-4.5966,-4.5967,-4.5967,-4.5967,-4.5636,-4.5704,-4.5705,-4.581,-4.5831,-4.592,-4.5979,-4.5977,-4.6063,-4.6025,-4.6056,-4.601,-4.61,-4.6128,-4.597,-4.5969,-4.5969,-4.5969,-4.5968,-4.5726,-4.5762,-4.5795,-4.5891,-4.5964,-4.6,-4.6082,-4.6099,-4.6115,-4.6146,-4.618,-4.6179,-4.6179,-4.6162,-4.6162,-4.6163,-4.6163,-4.6163,-4.6163,-4.5804,-4.5841,-4.5908,-4.598,-4.6024,-4.6085,-4.6144,-4.6188,-4.6241,-4.6246,-4.6247,-4.6243,-4.6106,-4.607,-4.6169,-4.6168,-4.6167,-4.6167,-4.6167,-4.5957,-4.5925,-4.6028,-4.6073,-4.6159,-4.623,-4.6251,-4.634,-4.6379,-4.6419,-4.641,-4.6307,-4.6303,-4.6293,-4.6263,-4.6406,-4.6406,-4.6406,-4.6406,-4.603,-4.6031,-4.614,-4.621,-4.6281,-4.631,-4.6427,-4.6474,-4.6518,-4.6543,-4.6526,-4.6488,-4.6477,-4.648,-4.6466,-4.6438,-4.6623,-4.6623,-4.6623,-4.6125,-4.6133,-4.6228,-4.627,-4.634,-4.6399,-4.6509,-4.6589,-4.6633,-4.6632,-4.6563,-4.6554,-4.6494,-4.6474,-4.6468,-4.6446,-4.6395,0,0]},{"header":{"parameterUnit":"m.s-1","parameterCategory":1,"la1":30.2992,"la2":30.254,"lo1":-89.0895,"lo2":-89.0443,"dy":0.0025,"dx":0.0025,"nx":19,"ny":19,"refTime":"2026-03-29T21:00:00:Z","depth":0,"parameterNumber":3,"parameterNumberName":"V-component_of_WINDS"},"data":[0,0,0,3.7446,3.7449,3.7577,3.7578,3.7719,3.772,0,0,0,0,0,0,0,0,0,0,0,3.7396,3.7396,3.7446,3.7449,3.7577,3.7578,3.7718,3.772,0,0,0,0,0,0,0,0,0,0,0,3.7396,3.7396,3.7397,3.745,3.7577,3.7578,3.7718,3.7629,0,0,0,0,0,0,0,0,0,0,3.7508,3.745,3.7396,3.7397,3.745,3.7577,3.7578,3.7625,3.7635,3.7651,0,3.7664,0,3.7694,3.7728,3.7728,0,0,0,3.7458,3.7442,3.7488,3.7397,3.7451,3.7577,3.7522,3.7631,3.7641,3.7663,3.7666,3.7672,3.7696,3.7729,3.7729,3.78,3.78,0,0,3.7451,3.7411,3.7481,3.7494,3.7475,3.7518,3.7526,3.7638,3.7637,3.7667,3.7675,3.7699,3.7729,3.773,3.78,3.78,0,0,0,3.7424,3.7406,3.745,3.7488,3.7513,3.7521,3.7531,3.7632,3.765,3.7677,3.77,3.773,3.7732,3.78,3.78,3.7761,0,0,0,3.7421,3.7391,3.7447,3.7424,3.7511,3.7575,3.7522,3.7642,3.7656,3.77,3.773,3.7733,3.7801,3.78,3.7762,3.7748,0,0,0,3.7392,3.7388,3.7402,3.7422,3.7476,3.7574,3.7598,3.7646,3.767,3.7728,3.7733,3.7801,3.78,3.7763,3.7751,3.7757,0,0,0,3.7349,3.7363,3.7401,3.7426,3.7474,3.7549,3.7598,3.7655,3.77,3.7731,3.7801,3.78,3.7764,3.7752,3.7758,3.7757,3.7753,0,0,3.7345,3.7361,3.7379,3.7417,3.7475,3.7532,3.7584,3.7661,3.7701,3.7764,3.7767,3.7762,3.7751,3.7758,3.7739,3.7736,0,0,0,3.7364,3.7377,3.7401,3.7444,3.7505,3.7556,3.763,3.7659,3.7716,3.7726,3.7767,3.7761,3.7767,3.7768,3.7765,3.7773,3.7799,3.7799,3.7799,3.7302,3.7355,3.7389,3.7457,3.7498,3.7576,3.7614,3.7666,3.7704,3.7713,3.7732,3.7715,3.7715,3.7713,3.772,3.7735,3.7735,3.7735,3.7735,3.7302,3.7329,3.7383,3.7436,3.7491,3.7535,3.761,3.7636,3.7684,3.7704,3.7712,3.773,3.7707,3.7717,3.7732,3.7733,3.7733,3.7733,3.7733,3.7268,3.7291,3.7327,3.7397,3.7444,3.7513,3.7558,3.7605,3.765,3.7658,3.7684,3.7685,3.7693,3.7667,3.7667,3.7667,3.7667,3.7667,3.7667,3.7219,3.7262,3.7295,3.7363,3.7399,3.7451,3.753,3.7565,3.7616,3.7647,3.7648,3.7686,3.7695,3.7697,3.7666,3.7666,3.7666,3.7666,3.7666,3.7201,3.7214,3.7265,3.73,3.7385,3.743,3.7491,3.7559,3.7595,3.7616,3.7653,3.7652,3.7671,3.7674,3.7676,3.7641,3.7641,3.7641,3.7641,3.7173,3.7189,3.7254,3.7308,3.7366,3.7427,3.7483,3.7544,3.7609,3.7635,3.7646,3.7653,3.7654,3.7673,3.7675,3.7678,3.7645,3.7645,3.7645,3.7166,3.719,3.7229,3.7296,3.7366,3.7425,3.7479,3.7538,3.7613,3.7646,3.7656,3.7656,3.7667,3.7667,3.77,3.7703,3.7709,0,0]}]]